TimePDT,TemperatureF,Dew PointF,Humidity,Sea Level PressureIn,VisibilityMPH,Wind Direction,Wind SpeedMPH,Gust SpeedMPH,PrecipitationIn,Events,Conditions,WindDirDegrees,DateUTC
12:53 AM,41.0,39.0,93,29.79,8.0,NW,5.8,-,0.00,Rain,Light Rain,320,2013-03-20 07:53:00
1:53 AM,41.0,39.0,93,29.76,8.0,Calm,Calm,-,0.04,Rain,Light Rain,0,2013-03-20 08:53:00
2:53 AM,39.9,39.0,97,29.75,6.0,NW,3.5,-,0.01,Rain,Light Rain,310,2013-03-20 09:53:00
3:53 AM,39.0,37.9,96,29.70,3.0,Calm,Calm,-,0.03,,Scattered Clouds,0,2013-03-20 10:53:00
4:01 AM,39.2,37.4,93,29.69,2.0,Calm,Calm,-,N/A,,Partly Cloudy,0,2013-03-20 11:01:00
4:17 AM,39.2,37.4,93,29.67,1.5,Calm,Calm,-,N/A,,Scattered Clouds,0,2013-03-20 11:17:00
4:25 AM,37.4,37.4,100,29.67,0.8,Calm,Calm,-,N/A,,Mostly Cloudy,0,2013-03-20 11:25:00
4:44 AM,39.2,37.4,93,29.67,0.5,Calm,Calm,-,N/A,Fog,Fog,0,2013-03-20 11:44:00
4:53 AM,39.0,39.0,100,29.67,1.2,Calm,Calm,-,N/A,,Overcast,0,2013-03-20 11:53:00
5:01 AM,39.2,37.4,93,29.66,3.0,Calm,Calm,-,N/A,,Overcast,0,2013-03-20 12:01:00
5:13 AM,39.2,37.4,93,29.65,4.0,Calm,Calm,-,N/A,,Overcast,0,2013-03-20 12:13:00
5:53 AM,39.9,37.9,93,29.65,5.0,Calm,Calm,-,0.00,,Overcast,0,2013-03-20 12:53:00
6:53 AM,39.9,37.9,93,29.63,6.0,Calm,Calm,-,0.00,,Overcast,0,2013-03-20 13:53:00
7:12 AM,39.2,37.4,93,29.62,5.0,Calm,Calm,-,N/A,,Overcast,0,2013-03-20 14:12:00
7:21 AM,39.2,37.4,93,29.61,6.0,Calm,Calm,-,N/A,,Overcast,0,2013-03-20 14:21:00
8:29 AM,41.0,37.4,87,29.59,10.0,Calm,Calm,-,N/A,,Overcast,0,2013-03-20 15:29:00
8:53 AM,41.0,37.9,89,29.61,9.0,WNW,4.6,-,N/A,,Overcast,290,2013-03-20 15:53:00
9:04 AM,41.0,39.2,93,29.59,6.0,Calm,Calm,-,0.01,Rain,Light Rain,0,2013-03-20 16:04:00
9:53 AM,42.1,39.0,89,29.63,3.0,NW,6.9,-,0.06,Rain,Rain,310,2013-03-20 16:53:00
9:58 AM,41.0,39.2,93,29.62,1.8,WNW,4.6,-,0.02,Rain,Rain,290,2013-03-20 16:58:00
10:06 AM,41.0,39.2,93,29.60,3.0,Calm,Calm,-,0.03,Rain,Light Rain,0,2013-03-20 17:06:00
10:53 AM,44.1,41.0,89,29.65,10.0,Calm,Calm,-,0.04,,Overcast,0,2013-03-20 17:53:00
11:36 AM,53.6,39.2,58,29.64,10.0,West,21.9,29.9,N/A,,Partly Cloudy,270,2013-03-20 18:36:00
11:53 AM,55.9,41.0,57,29.65,10.0,West,13.8,20.7,N/A,,Scattered Clouds,270,2013-03-20 18:53:00
12:53 PM,55.9,35.1,45,29.69,10.0,West,25.3,42.6,N/A,,Partly Cloudy,270,2013-03-20 19:53:00
1:53 PM,55.9,33.1,42,29.70,10.0,West,29.9,41.4,N/A,,Clear,270,2013-03-20 20:53:00
2:53 PM,55.0,34.0,45,29.73,10.0,West,28.8,36.8,0.00,,Partly Cloudy,270,2013-03-20 21:53:00
3:53 PM,50.0,37.9,63,29.78,10.0,WNW,17.3,28.8,0.01,,Scattered Clouds,290,2013-03-20 22:53:00
4:53 PM,51.1,34.0,52,29.83,10.0,West,20.7,33.4,N/A,,Mostly Cloudy,270,2013-03-20 23:53:00
5:53 PM,48.0,37.9,68,29.86,10.0,NW,16.1,-,0.00,,Mostly Cloudy,320,2013-03-21 00:53:00
6:53 PM,44.1,35.1,71,29.90,10.0,West,15.0,21.9,0.01,,Scattered Clouds,260,2013-03-21 01:53:00
7:53 PM,42.1,36.0,79,29.95,8.0,West,15.0,27.6,0.01,Rain,Light Rain,260,2013-03-21 02:53:00
8:53 PM,42.1,37.0,82,29.99,10.0,WSW,8.1,-,0.01,,Mostly Cloudy,250,2013-03-21 03:53:00
9:28 PM,41.0,33.8,76,30.00,10.0,SW,8.1,21.9,0.01,Rain,Light Rain,230,2013-03-21 04:28:00
9:42 PM,41.0,33.8,76,30.01,10.0,SW,10.4,-,0.01,,Mostly Cloudy,220,2013-03-21 04:42:00
9:53 PM,42.1,33.1,70,30.02,10.0,WSW,20.7,32.2,0.01,,Mostly Cloudy,250,2013-03-21 04:53:00
10:53 PM,39.9,32.0,73,30.05,10.0,West,24.2,31.1,N/A,,Overcast,280,2013-03-21 05:53:00
11:53 PM,39.0,32.0,76,30.07,10.0,SSW,3.5,-,0.00,,Mostly Cloudy,200,2013-03-21 06:53:00